Time,TemperatureF,DewpointF,PressureIn,WindDirection,WindDirectionDegrees,WindSpeedMPH,WindSpeedGustMPH,Humidity,HourlyPrecipIn,Conditions,Clouds,dailyrainin,SoftwareType,DateUTC
2013-01-01 00:00:00,32.3,29.7,30.08,West,273,0.0,1.0,90,0.00,,---,0.00,VWS V14.00,2013-01-01 05:00:00,
2013-01-01 00:01:00,32.3,29.7,30.08,West,273,0.0,1.0,90,0.00,,---,0.00,VWS V14.00,2013-01-01 05:01:00,
2013-01-01 00:03:00,32.3,29.7,30.07,West,273,0.0,1.0,90,0.00,,---,0.00,VWS V14.00,2013-01-01 05:03:00,
2013-01-01 00:08:00,32.3,29.7,30.07,WSW,240,0.0,4.0,90,0.00,,---,0.00,VWS V14.00,2013-01-01 05:08:00,
2013-01-01 00:13:00,32.3,29.7,30.06,SSW,201,0.0,2.0,90,0.00,,---,0.00,VWS V14.00,2013-01-01 05:13:00,
2013-01-01 00:18:00,32.3,29.7,30.06,West,262,0.0,2.0,90,0.00,,---,0.00,VWS V14.00,2013-01-01 05:18:00,
2013-01-01 00:23:00,32.3,29.7,30.06,SSW,196,0.0,4.0,90,0.00,,---,0.00,VWS V14.00,2013-01-01 05:23:00,
2013-01-01 00:28:00,32.3,29.7,30.07,SSW,192,0.0,3.0,90,0.00,,---,0.00,VWS V14.00,2013-01-01 05:28:00,
2013-01-01 00:33:00,32.3,29.7,30.07,SSW,194,0.0,1.0,90,0.00,,---,0.00,VWS V14.00,2013-01-01 05:33:00,
2013-01-01 00:38:00,32.3,30.0,30.07,SSW,192,2.0,2.0,91,0.00,,---,0.00,VWS V14.00,2013-01-01 05:38:00,
2013-01-01 00:43:00,32.3,30.0,30.06,SSW,194,0.0,1.0,91,0.00,,---,0.00,VWS V14.00,2013-01-01 05:43:00,
2013-01-01 00:48:00,32.3,30.0,30.06,West,278,0.0,4.0,91,0.00,,---,0.00,VWS V14.00,2013-01-01 05:48:00,
2013-01-01 00:53:00,32.3,30.0,30.06,West,278,0.0,2.0,91,0.00,,---,0.00,VWS V14.00,2013-01-01 05:53:00,
2013-01-01 00:58:00,32.3,30.0,30.06,West,277,0.0,1.0,91,0.00,,---,0.00,VWS V14.00,2013-01-01 05:58:00,
2013-01-01 01:03:00,32.3,30.0,30.07,WSW,238,0.0,1.0,91,0.00,,---,0.00,VWS V14.00,2013-01-01 06:03:00,
2013-01-01 01:08:00,32.3,30.0,30.07,WSW,238,0.0,2.0,91,0.00,,---,0.00,VWS V14.00,2013-01-01 06:08:00,
2013-01-01 01:13:00,32.3,30.0,30.07,WSW,244,0.0,3.0,91,0.00,,---,0.00,VWS V14.00,2013-01-01 06:13:00,
2013-01-01 01:18:00,32.3,30.0,30.07,SSE,160,0.0,3.0,91,0.00,,---,0.00,VWS V14.00,2013-01-01 06:18:00,
2013-01-01 01:23:00,32.3,30.0,30.07,WSW,253,1.0,3.0,91,0.00,,---,0.00,VWS V14.00,2013-01-01 06:23:00,
2013-01-01 01:28:00,32.3,30.0,30.06,WSW,253,0.0,1.0,91,0.00,,---,0.00,VWS V14.00,2013-01-01 06:28:00,
2013-01-01 01:33:00,32.3,30.0,30.07,WSW,253,0.0,1.0,91,0.00,,---,0.00,VWS V14.00,2013-01-01 06:33:00,
2013-01-01 01:38:00,32.3,30.0,30.06,West,269,0.0,2.0,91,0.00,,---,0.00,VWS V14.00,2013-01-01 06:38:00,
2013-01-01 01:43:00,32.3,30.0,30.06,West,269,0.0,0.0,91,0.00,,---,0.00,VWS V14.00,2013-01-01 06:43:00,
2013-01-01 01:48:00,32.4,30.1,30.06,West,269,0.0,0.0,91,0.00,,---,0.00,VWS V14.00,2013-01-01 06:48:00,
2013-01-01 01:53:00,32.4,30.1,30.05,West,269,0.0,0.0,91,0.00,,---,0.00,VWS V14.00,2013-01-01 06:53:00,
2013-01-01 01:58:00,32.4,30.1,30.06,SSW,202,0.0,2.0,91,0.00,,---,0.00,VWS V14.00,2013-01-01 06:58:00,
2013-01-01 02:03:00,32.4,30.1,30.05,SSW,205,0.0,0.0,91,0.00,,---,0.00,VWS V14.00,2013-01-01 07:03:00,
2013-01-01 02:08:00,32.4,30.1,30.06,SSW,205,0.0,1.0,91,0.00,,---,0.00,VWS V14.00,2013-01-01 07:08:00,
2013-01-01 02:13:00,32.4,30.1,30.06,SSW,205,0.0,0.0,91,0.00,,---,0.00,VWS V14.00,2013-01-01 07:13:00,
2013-01-01 02:18:00,32.4,30.1,30.06,SSW,205,0.0,0.0,91,0.00,,---,0.00,VWS V14.00,2013-01-01 07:18:00,
2013-01-01 02:23:00,32.4,30.1,30.06,SSW,205,0.0,2.0,91,0.00,,---,0.00,VWS V14.00,2013-01-01 07:23:00,
2013-01-01 02:28:00,32.4,30.1,30.06,SSW,210,1.0,1.0,91,0.00,,---,0.00,VWS V14.00,2013-01-01 07:28:00,
2013-01-01 02:33:00,32.4,30.1,30.07,South,175,0.0,2.0,91,0.00,,---,0.00,VWS V14.00,2013-01-01 07:33:00,
2013-01-01 02:38:00,32.4,30.1,30.06,SW,231,0.0,1.0,91,0.00,,---,0.00,VWS V14.00,2013-01-01 07:38:00,
2013-01-01 02:43:00,32.5,30.2,30.06,South,170,1.0,3.0,91,0.00,,---,0.00,VWS V14.00,2013-01-01 07:43:00,
2013-01-01 02:48:00,32.5,30.2,30.06,South,186,0.0,4.0,91,0.00,,---,0.00,VWS V14.00,2013-01-01 07:48:00,
2013-01-01 02:53:00,32.5,30.2,30.06,South,188,2.0,2.0,91,0.00,,---,0.00,VWS V14.00,2013-01-01 07:53:00,
2013-01-01 02:58:00,32.5,30.2,30.05,South,188,1.0,1.0,91,0.00,,---,0.00,VWS V14.00,2013-01-01 07:58:00,
2013-01-01 03:03:00,32.5,30.2,30.06,South,188,0.0,2.0,91,0.00,,---,0.00,VWS V14.00,2013-01-01 08:03:00,
2013-01-01 03:08:00,32.5,30.2,30.05,South,188,0.0,1.0,91,0.00,,---,0.00,VWS V14.00,2013-01-01 08:08:00,
2013-01-01 03:13:00,32.5,30.2,30.06,SW,220,0.0,3.0,91,0.00,,---,0.00,VWS V14.00,2013-01-01 08:13:00,
2013-01-01 03:18:00,32.5,30.2,30.05,SW,220,0.0,1.0,91,0.00,,---,0.00,VWS V14.00,2013-01-01 08:18:00,
2013-01-01 03:23:00,32.5,30.4,30.05,SW,220,0.0,1.0,92,0.00,,---,0.00,VWS V14.00,2013-01-01 08:23:00,
2013-01-01 03:28:00,32.5,30.4,30.05,SW,220,0.0,1.0,92,0.00,,---,0.00,VWS V14.00,2013-01-01 08:28:00,
2013-01-01 03:33:00,32.5,30.4,30.05,SW,220,0.0,1.0,92,0.00,,---,0.00,VWS V14.00,2013-01-01 08:33:00,
2013-01-01 03:38:00,32.4,30.3,30.05,SW,220,0.0,0.0,92,0.00,,---,0.00,VWS V14.00,2013-01-01 08:38:00,
2013-01-01 03:43:00,32.4,30.1,30.04,SSW,209,0.0,1.0,91,0.00,,---,0.00,VWS V14.00,2013-01-01 08:43:00,
2013-01-01 03:48:00,32.4,30.3,30.05,SSW,209,0.0,1.0,92,0.00,,---,0.00,VWS V14.00,2013-01-01 08:48:00,
2013-01-01 03:53:00,32.3,30.2,30.06,SSW,209,0.0,0.0,92,0.00,,---,0.00,VWS V14.00,2013-01-01 08:53:00,
2013-01-01 03:58:00,32.3,30.2,30.05,SSW,209,0.0,1.0,92,0.00,,---,0.00,VWS V14.00,2013-01-01 08:58:00,
2013-01-01 04:03:00,32.3,30.2,30.05,SSW,209,0.0,2.0,92,0.00,,---,0.00,VWS V14.00,2013-01-01 09:03:00,
2013-01-01 04:08:00,32.2,30.1,30.04,SSW,209,0.0,2.0,92,0.00,,---,0.00,VWS V14.00,2013-01-01 09:08:00,
2013-01-01 04:13:00,32.2,30.1,30.05,SSW,209,0.0,2.0,92,0.00,,---,0.00,VWS V14.00,2013-01-01 09:13:00,
2013-01-01 04:18:00,32.2,30.1,30.04,SSW,209,0.0,0.0,92,0.00,,---,0.00,VWS V14.00,2013-01-01 09:18:00,
2013-01-01 04:23:00,32.2,30.1,30.04,SSW,209,0.0,0.0,92,0.00,,---,0.00,VWS V14.00,2013-01-01 09:23:00,
2013-01-01 04:28:00,32.1,30.0,30.04,SSW,209,0.0,1.0,92,0.00,,---,0.00,VWS V14.00,2013-01-01 09:28:00,
2013-01-01 04:33:00,32.1,30.0,30.04,SSW,209,0.0,0.0,92,0.00,,---,0.00,VWS V14.00,2013-01-01 09:33:00,
2013-01-01 04:38:00,32.1,30.0,30.04,SSW,209,0.0,0.0,92,0.00,,---,0.00,VWS V14.00,2013-01-01 09:38:00,
2013-01-01 04:43:00,32.1,30.0,30.04,SW,214,1.0,1.0,92,0.00,,---,0.00,VWS V14.00,2013-01-01 09:43:00,
2013-01-01 04:48:00,32.1,30.0,30.04,SSW,213,0.0,2.0,92,0.00,,---,0.00,VWS V14.00,2013-01-01 09:48:00,
2013-01-01 04:53:00,32.1,30.0,30.04,SSW,211,0.0,1.0,92,0.00,,---,0.00,VWS V14.00,2013-01-01 09:53:00,
2013-01-01 04:58:00,32.1,30.0,30.03,SSW,211,0.0,1.0,92,0.00,,---,0.00,VWS V14.00,2013-01-01 09:58:00,
2013-01-01 05:03:00,32.1,30.0,30.03,SSW,211,0.0,1.0,92,0.00,,---,0.00,VWS V14.00,2013-01-01 10:03:00,
2013-01-01 05:08:00,32.1,30.0,30.04,SSW,211,0.0,0.0,92,0.00,,---,0.00,VWS V14.00,2013-01-01 10:08:00,
2013-01-01 05:13:00,32.1,30.3,30.03,SSW,211,1.0,3.0,93,0.00,,---,0.01,VWS V14.00,2013-01-01 10:13:00,
2013-01-01 05:18:00,32.1,30.3,30.03,SSW,211,0.0,1.0,93,0.00,,---,0.01,VWS V14.00,2013-01-01 10:18:00,
2013-01-01 05:23:00,32.0,30.2,30.03,SSW,211,0.0,0.0,93,0.00,,---,0.01,VWS V14.00,2013-01-01 10:23:00,
2013-01-01 05:28:00,32.0,30.2,30.03,South,179,0.0,4.0,93,0.00,,---,0.01,VWS V14.00,2013-01-01 10:28:00,
2013-01-01 05:33:00,32.0,30.2,30.02,SW,221,0.0,3.0,93,0.00,,---,0.01,VWS V14.00,2013-01-01 10:33:00,
2013-01-01 05:38:00,32.0,30.2,30.03,SW,221,1.0,1.0,93,0.00,,---,0.01,VWS V14.00,2013-01-01 10:38:00,
2013-01-01 05:43:00,32.0,30.2,30.03,South,184,0.0,2.0,93,0.00,,---,0.01,VWS V14.00,2013-01-01 10:43:00,
2013-01-01 05:48:00,32.0,30.2,30.03,South,184,0.0,1.0,93,0.00,,---,0.01,VWS V14.00,2013-01-01 10:48:00,
2013-01-01 05:53:00,31.9,30.1,30.04,SSW,203,0.0,1.0,93,0.00,,---,0.01,VWS V14.00,2013-01-01 10:53:00,
2013-01-01 05:58:00,31.9,30.1,30.03,WNW,287,0.0,2.0,93,0.00,,---,0.01,VWS V14.00,2013-01-01 10:58:00,
2013-01-01 06:03:00,31.9,30.1,30.03,WNW,287,0.0,1.0,93,0.00,,---,0.01,VWS V14.00,2013-01-01 11:03:00,
2013-01-01 06:08:00,31.9,30.1,30.03,WNW,287,0.0,0.0,93,0.00,,---,0.01,VWS V14.00,2013-01-01 11:08:00,
2013-01-01 06:13:00,31.9,30.1,30.03,WNW,296,0.0,3.0,93,0.00,,---,0.01,VWS V14.00,2013-01-01 11:13:00,
2013-01-01 06:18:00,31.9,30.1,30.03,WNW,296,0.0,0.0,93,0.00,,---,0.01,VWS V14.00,2013-01-01 11:18:00,
2013-01-01 06:23:00,31.9,30.1,30.03,WNW,296,0.0,1.0,93,0.00,,---,0.01,VWS V14.00,2013-01-01 11:23:00,
2013-01-01 06:28:00,31.9,30.1,30.03,WNW,296,0.0,0.0,93,0.00,,---,0.01,VWS V14.00,2013-01-01 11:28:00,
2013-01-01 06:33:00,31.9,30.1,30.02,WNW,296,0.0,1.0,93,0.00,,---,0.01,VWS V14.00,2013-01-01 11:33:00,
2013-01-01 06:38:00,31.9,30.1,30.03,WNW,296,0.0,1.0,93,0.00,,---,0.01,VWS V14.00,2013-01-01 11:38:00,
2013-01-01 06:43:00,31.9,30.1,30.03,WNW,296,0.0,0.0,93,0.00,,---,0.01,VWS V14.00,2013-01-01 11:43:00,
2013-01-01 06:48:00,31.8,30.0,30.02,WNW,296,0.0,0.0,93,0.00,,---,0.01,VWS V14.00,2013-01-01 11:48:00,
2013-01-01 06:53:00,31.8,30.0,30.03,WNW,296,0.0,1.0,93,0.00,,---,0.01,VWS V14.00,2013-01-01 11:53:00,
2013-01-01 06:58:00,31.8,30.0,30.03,WNW,296,0.0,0.0,93,0.00,,---,0.01,VWS V14.00,2013-01-01 11:58:00,
2013-01-01 07:03:00,31.7,29.9,30.03,WNW,296,0.0,0.0,93,0.00,,---,0.01,VWS V14.00,2013-01-01 12:03:00,
2013-01-01 07:08:00,31.7,29.9,30.03,WNW,296,0.0,1.0,93,0.00,,---,0.01,VWS V14.00,2013-01-01 12:08:00,
2013-01-01 07:13:00,31.7,29.9,30.03,WNW,296,0.0,0.0,93,0.00,,---,0.01,VWS V14.00,2013-01-01 12:13:00,
2013-01-01 07:18:00,31.7,29.9,30.03,WNW,296,0.0,0.0,93,0.00,,---,0.01,VWS V14.00,2013-01-01 12:18:00,
2013-01-01 07:23:00,31.7,29.9,30.03,WSW,258,0.0,1.0,93,0.00,,---,0.01,VWS V14.00,2013-01-01 12:23:00,
2013-01-01 07:28:00,31.7,29.9,30.03,WSW,258,0.0,0.0,93,0.00,,---,0.01,VWS V14.00,2013-01-01 12:28:00,
2013-01-01 07:33:00,31.7,29.9,30.04,WSW,258,0.0,1.0,93,0.00,,---,0.01,VWS V14.00,2013-01-01 12:33:00,
2013-01-01 07:38:00,31.7,29.9,30.04,WSW,258,0.0,0.0,93,0.00,,---,0.01,VWS V14.00,2013-01-01 12:38:00,
2013-01-01 07:43:00,31.7,29.9,30.04,WSW,258,0.0,0.0,93,0.00,,---,0.01,VWS V14.00,2013-01-01 12:43:00,
2013-01-01 07:48:00,31.7,29.9,30.04,WSW,258,0.0,0.0,93,0.00,,---,0.01,VWS V14.00,2013-01-01 12:48:00,
2013-01-01 07:53:00,31.7,30.2,30.04,WSW,258,0.0,2.0,94,0.00,,---,0.01,VWS V14.00,2013-01-01 12:53:00,
2013-01-01 07:58:00,31.7,30.2,30.04,WSW,258,0.0,0.0,94,0.00,,---,0.01,VWS V14.00,2013-01-01 12:58:00,
2013-01-01 08:03:00,31.7,30.2,30.04,WSW,258,0.0,0.0,94,0.00,,---,0.01,VWS V14.00,2013-01-01 13:03:00,
2013-01-01 08:08:00,31.7,30.2,30.04,WSW,258,0.0,2.0,94,0.00,,---,0.01,VWS V14.00,2013-01-01 13:08:00,
2013-01-01 08:13:00,31.7,30.2,30.04,WSW,258,0.0,0.0,94,0.00,,---,0.01,VWS V14.00,2013-01-01 13:13:00,
2013-01-01 08:18:00,31.7,30.2,30.04,WSW,258,0.0,0.0,94,0.00,,---,0.01,VWS V14.00,2013-01-01 13:18:00,
2013-01-01 08:23:00,31.7,30.2,30.04,WSW,256,0.0,1.0,94,0.00,,---,0.01,VWS V14.00,2013-01-01 13:23:00,
2013-01-01 08:28:00,31.7,30.2,30.04,WSW,256,0.0,1.0,94,0.00,,---,0.01,VWS V14.00,2013-01-01 13:28:00,
2013-01-01 08:33:00,31.7,30.2,30.04,WSW,256,0.0,1.0,94,0.00,,---,0.01,VWS V14.00,2013-01-01 13:33:00,
2013-01-01 08:38:00,31.8,30.3,30.04,WSW,256,0.0,1.0,94,0.00,,---,0.01,VWS V14.00,2013-01-01 13:38:00,
2013-01-01 08:43:00,31.8,30.3,30.05,SW,234,0.0,2.0,94,0.00,,---,0.01,VWS V14.00,2013-01-01 13:43:00,
2013-01-01 08:48:00,31.8,30.3,30.05,SW,234,0.0,1.0,94,0.00,,---,0.01,VWS V14.00,2013-01-01 13:48:00,
2013-01-01 08:53:00,31.9,30.4,30.05,NNW,329,0.0,2.0,94,0.00,,---,0.01,VWS V14.00,2013-01-01 13:53:00,
2013-01-01 08:58:00,31.9,30.4,30.05,West,268,0.0,2.0,94,0.00,,---,0.01,VWS V14.00,2013-01-01 13:58:00,
2013-01-01 09:03:00,31.9,30.4,30.05,West,268,0.0,1.0,94,0.00,,---,0.01,VWS V14.00,2013-01-01 14:03:00,
2013-01-01 09:08:00,32.0,30.5,30.04,West,268,0.0,1.0,94,0.00,,---,0.01,VWS V14.00,2013-01-01 14:08:00,
2013-01-01 09:13:00,32.0,30.5,30.05,West,268,0.0,0.0,94,0.00,,---,0.01,VWS V14.00,2013-01-01 14:13:00,
2013-01-01 09:18:00,32.1,30.6,30.05,West,268,0.0,1.0,94,0.00,,---,0.01,VWS V14.00,2013-01-01 14:18:00,
2013-01-01 09:23:00,32.1,30.6,30.05,South,175,1.0,3.0,94,0.00,,---,0.01,VWS V14.00,2013-01-01 14:23:00,
2013-01-01 09:28:00,32.1,30.6,30.05,WNW,302,0.0,1.0,94,0.00,,---,0.01,VWS V14.00,2013-01-01 14:28:00,
2013-01-01 09:33:00,32.2,30.7,30.05,WNW,302,0.0,2.0,94,0.00,,---,0.01,VWS V14.00,2013-01-01 14:33:00,
2013-01-01 09:38:00,32.3,30.8,30.05,South,184,0.0,1.0,94,0.00,,---,0.01,VWS V14.00,2013-01-01 14:38:00,
2013-01-01 09:43:00,32.3,30.8,30.04,SW,230,2.0,3.0,94,0.00,,---,0.01,VWS V14.00,2013-01-01 14:43:00,
2013-01-01 09:48:00,32.3,30.8,30.05,SW,232,0.0,1.0,94,0.00,,---,0.01,VWS V14.00,2013-01-01 14:48:00,
2013-01-01 09:53:00,32.4,30.9,30.05,SW,232,0.0,1.0,94,0.00,,---,0.01,VWS V14.00,2013-01-01 14:53:00,
2013-01-01 09:58:00,32.4,30.9,30.04,SSW,192,0.0,2.0,94,0.00,,---,0.01,VWS V14.00,2013-01-01 14:58:00,
2013-01-01 10:03:00,32.5,31.0,30.04,South,169,2.0,3.0,94,0.00,,---,0.01,VWS V14.00,2013-01-01 15:03:00,
2013-01-01 10:08:00,32.5,31.0,30.04,SSW,202,0.0,1.0,94,0.00,,---,0.01,VWS V14.00,2013-01-01 15:08:00,
2013-01-01 10:13:00,32.6,31.1,30.05,WNW,290,0.0,1.0,94,0.00,,---,0.01,VWS V14.00,2013-01-01 15:13:00,
2013-01-01 10:18:00,32.7,31.2,30.06,West,268,1.0,4.0,94,0.00,,---,0.01,VWS V14.00,2013-01-01 15:18:00,
2013-01-01 10:23:00,32.8,31.3,30.05,SW,224,0.0,5.0,94,0.00,,---,0.01,VWS V14.00,2013-01-01 15:23:00,
2013-01-01 10:28:00,32.8,31.3,30.05,West,276,0.0,4.0,94,0.00,,---,0.01,VWS V14.00,2013-01-01 15:28:00,
2013-01-01 10:33:00,32.8,31.3,30.06,West,263,1.0,2.0,94,0.00,,---,0.01,VWS V14.00,2013-01-01 15:33:00,
2013-01-01 10:38:00,32.9,31.4,30.06,SSW,209,0.0,3.0,94,0.00,,---,0.01,VWS V14.00,2013-01-01 15:38:00,
2013-01-01 10:43:00,32.9,31.4,30.06,WNW,288,0.0,4.0,94,0.00,,---,0.01,VWS V14.00,2013-01-01 15:43:00,
2013-01-01 10:48:00,33.0,31.5,30.06,WSW,244,0.0,4.0,94,0.00,,---,0.01,VWS V14.00,2013-01-01 15:48:00,
2013-01-01 10:53:00,33.0,31.5,30.07,NW,317,0.0,3.0,94,0.00,,---,0.01,VWS V14.00,2013-01-01 15:53:00,
2013-01-01 10:58:00,33.0,31.5,30.07,West,266,0.0,2.0,94,0.00,,---,0.01,VWS V14.00,2013-01-01 15:58:00,
2013-01-01 11:03:00,33.1,31.6,30.07,West,261,0.0,3.0,94,0.00,,---,0.01,VWS V14.00,2013-01-01 16:03:00,
2013-01-01 11:08:00,33.1,31.6,30.05,WSW,242,0.0,1.0,94,0.00,,---,0.01,VWS V14.00,2013-01-01 16:08:00,
2013-01-01 11:13:00,33.1,31.6,30.05,WSW,243,2.0,2.0,94,0.00,,---,0.01,VWS V14.00,2013-01-01 16:13:00,
2013-01-01 11:18:00,33.2,31.7,30.05,WSW,243,0.0,2.0,94,0.00,,---,0.01,VWS V14.00,2013-01-01 16:18:00,
2013-01-01 11:23:00,33.2,31.7,30.05,WSW,243,1.0,2.0,94,0.00,,---,0.01,VWS V14.00,2013-01-01 16:23:00,
2013-01-01 11:28:00,33.2,31.7,30.05,WSW,242,1.0,2.0,94,0.00,,---,0.01,VWS V14.00,2013-01-01 16:28:00,
2013-01-01 11:33:00,33.3,31.8,30.04,WSW,242,0.0,0.0,94,0.00,,---,0.01,VWS V14.00,2013-01-01 16:33:00,
2013-01-01 11:38:00,33.3,31.8,30.03,WSW,242,0.0,0.0,94,0.00,,---,0.01,VWS V14.00,2013-01-01 16:38:00,
2013-01-01 11:43:00,33.4,31.9,30.03,WSW,244,0.0,2.0,94,0.00,,---,0.01,VWS V14.00,2013-01-01 16:43:00,
2013-01-01 11:48:00,33.4,31.9,30.03,SSW,213,0.0,1.0,94,0.00,,---,0.01,VWS V14.00,2013-01-01 16:48:00,
2013-01-01 11:53:00,33.4,31.9,30.02,WSW,240,0.0,2.0,94,0.00,,---,0.01,VWS V14.00,2013-01-01 16:53:00,
2013-01-01 11:58:00,33.4,31.9,30.02,WSW,242,0.0,1.0,94,0.00,,---,0.01,VWS V14.00,2013-01-01 16:58:00,
2013-01-01 12:03:00,33.4,31.9,30.02,West,275,2.0,4.0,94,0.00,,---,0.01,VWS V14.00,2013-01-01 17:03:00,
2013-01-01 12:08:00,33.3,31.5,30.01,West,270,2.0,4.0,93,0.00,,---,0.01,VWS V14.00,2013-01-01 17:08:00,
2013-01-01 12:13:00,33.2,31.4,30.01,West,275,0.0,5.0,93,0.00,,---,0.01,VWS V14.00,2013-01-01 17:13:00,
2013-01-01 12:18:00,33.2,31.4,30.01,West,274,2.0,3.0,93,0.00,,---,0.01,VWS V14.00,2013-01-01 17:18:00,
2013-01-01 12:23:00,33.2,31.4,30.01,West,267,0.0,5.0,93,0.00,,---,0.01,VWS V14.00,2013-01-01 17:23:00,
2013-01-01 12:28:00,33.1,31.3,30.00,West,267,0.0,1.0,93,0.00,,---,0.01,VWS V14.00,2013-01-01 17:28:00,
2013-01-01 12:33:00,33.1,31.3,30.01,West,267,0.0,0.0,93,0.00,,---,0.01,VWS V14.00,2013-01-01 17:33:00,
2013-01-01 12:38:00,33.1,31.3,30.01,WNW,284,1.0,4.0,93,0.00,,---,0.01,VWS V14.00,2013-01-01 17:38:00,
2013-01-01 12:43:00,33.0,31.2,30.01,West,281,0.0,5.0,93,0.00,,---,0.01,VWS V14.00,2013-01-01 17:43:00,
2013-01-01 12:48:00,33.0,31.2,30.01,WNW,287,0.0,3.0,93,0.00,,---,0.01,VWS V14.00,2013-01-01 17:48:00,
2013-01-01 12:53:00,33.0,31.2,30.01,West,259,0.0,2.0,93,0.00,,---,0.01,VWS V14.00,2013-01-01 17:53:00,
2013-01-01 12:58:00,32.9,31.1,30.01,West,268,0.0,3.0,93,0.00,,---,0.01,VWS V14.00,2013-01-01 17:58:00,
2013-01-01 13:03:00,33.0,31.2,30.00,NW,321,0.0,6.0,93,0.00,,---,0.01,VWS V14.00,2013-01-01 18:03:00,
2013-01-01 13:08:00,33.0,31.2,30.00,NW,305,1.0,4.0,93,0.00,,---,0.01,VWS V14.00,2013-01-01 18:08:00,
2013-01-01 13:13:00,33.0,31.2,30.00,WNW,291,0.0,3.0,93,0.00,,---,0.01,VWS V14.00,2013-01-01 18:13:00,
2013-01-01 13:18:00,33.1,31.3,30.01,WNW,285,3.0,6.0,93,0.00,,---,0.01,VWS V14.00,2013-01-01 18:18:00,
2013-01-01 13:23:00,33.1,31.3,30.01,West,281,0.0,6.0,93,0.00,,---,0.01,VWS V14.00,2013-01-01 18:23:00,
2013-01-01 13:28:00,33.2,31.4,30.00,SSW,210,3.0,3.0,93,0.00,,---,0.01,VWS V14.00,2013-01-01 18:28:00,
2013-01-01 13:33:00,33.3,31.2,30.00,WNW,284,0.0,5.0,92,0.00,,---,0.01,VWS V14.00,2013-01-01 18:33:00,
2013-01-01 13:38:00,33.3,31.2,30.00,WSW,248,0.0,4.0,92,0.00,,---,0.01,VWS V14.00,2013-01-01 18:38:00,
2013-01-01 13:43:00,33.4,31.3,30.00,SW,231,0.0,3.0,92,0.00,,---,0.01,VWS V14.00,2013-01-01 18:43:00,
2013-01-01 13:48:00,33.4,31.3,30.00,WNW,290,1.0,6.0,92,0.00,,---,0.01,VWS V14.00,2013-01-01 18:48:00,
2013-01-01 13:53:00,33.4,31.3,30.00,West,277,0.0,2.0,92,0.00,,---,0.01,VWS V14.00,2013-01-01 18:53:00,
2013-01-01 13:58:00,33.4,31.3,29.99,West,281,3.0,5.0,92,0.00,,---,0.01,VWS V14.00,2013-01-01 18:58:00,
2013-01-01 14:03:00,33.4,31.3,29.99,WNW,297,1.0,4.0,92,0.00,,---,0.01,VWS V14.00,2013-01-01 19:03:00,
2013-01-01 14:08:00,33.4,31.3,30.00,NW,323,0.0,2.0,92,0.00,,---,0.01,VWS V14.00,2013-01-01 19:08:00,
2013-01-01 14:13:00,33.4,31.3,30.00,SW,215,0.0,1.0,92,0.00,,---,0.01,VWS V14.00,2013-01-01 19:13:00,
2013-01-01 14:18:00,33.4,31.1,30.00,West,280,4.0,6.0,91,0.00,,---,0.01,VWS V14.00,2013-01-01 19:18:00,
2013-01-01 14:23:00,33.4,31.1,30.00,WNW,296,1.0,3.0,91,0.00,,---,0.01,VWS V14.00,2013-01-01 19:23:00,
2013-01-01 14:28:00,33.4,31.1,30.02,West,279,5.0,10.0,91,0.00,,---,0.01,VWS V14.00,2013-01-01 19:28:00,
2013-01-01 14:33:00,33.2,30.9,30.01,WNW,291,3.0,9.0,91,0.00,,---,0.01,VWS V14.00,2013-01-01 19:33:00,
2013-01-01 14:38:00,33.0,30.7,30.01,NNW,339,2.0,9.0,91,0.00,,---,0.01,VWS V14.00,2013-01-01 19:38:00,
2013-01-01 14:43:00,33.0,30.4,30.00,WSW,238,3.0,5.0,90,0.00,,---,0.01,VWS V14.00,2013-01-01 19:43:00,
2013-01-01 14:49:00,32.9,30.3,30.00,West,276,0.0,5.0,90,0.00,,---,0.01,VWS V14.00,2013-01-01 19:49:00,
2013-01-01 14:54:00,32.9,30.3,30.00,WNW,284,3.0,3.0,90,0.00,,---,0.01,VWS V14.00,2013-01-01 19:54:00,
2013-01-01 14:59:00,32.8,30.2,30.00,WNW,289,1.0,4.0,90,0.00,,---,0.01,VWS V14.00,2013-01-01 19:59:00,
2013-01-01 15:04:00,32.8,29.9,30.01,WNW,301,3.0,4.0,89,0.00,,---,0.01,VWS V14.00,2013-01-01 20:04:00,
2013-01-01 15:09:00,32.7,29.8,30.02,SW,214,2.0,5.0,89,0.00,,---,0.01,VWS V14.00,2013-01-01 20:09:00,
2013-01-01 15:14:00,32.6,29.7,30.02,West,278,2.0,3.0,89,0.00,,---,0.01,VWS V14.00,2013-01-01 20:14:00,
2013-01-01 15:19:00,32.6,29.7,30.02,West,271,0.0,3.0,89,0.00,,---,0.01,VWS V14.00,2013-01-01 20:19:00,
2013-01-01 15:24:00,32.6,29.7,30.01,WSW,250,0.0,3.0,89,0.00,,---,0.01,VWS V14.00,2013-01-01 20:24:00,
2013-01-01 15:29:00,32.5,29.4,30.01,West,263,1.0,5.0,88,0.00,,---,0.01,VWS V14.00,2013-01-01 20:29:00,
2013-01-01 15:34:00,32.5,29.4,30.01,West,271,0.0,3.0,88,0.00,,---,0.01,VWS V14.00,2013-01-01 20:34:00,
2013-01-01 15:39:00,32.4,29.2,30.00,West,281,0.0,8.0,88,0.00,,---,0.01,VWS V14.00,2013-01-01 20:39:00,
2013-01-01 15:44:00,32.3,29.1,30.02,West,269,0.0,6.0,88,0.00,,---,0.01,VWS V14.00,2013-01-01 20:44:00,
2013-01-01 15:49:00,32.2,29.0,30.03,WSW,255,0.0,3.0,88,0.00,,---,0.01,VWS V14.00,2013-01-01 20:49:00,
2013-01-01 15:54:00,32.1,29.0,30.03,SW,217,0.0,2.0,88,0.00,,---,0.01,VWS V14.00,2013-01-01 20:54:00,
2013-01-01 15:59:00,32.1,29.0,30.03,WNW,291,3.0,6.0,88,0.00,,---,0.01,VWS V14.00,2013-01-01 20:59:00,
2013-01-01 16:04:00,32.1,29.0,30.03,WSW,251,1.0,6.0,88,0.00,,---,0.01,VWS V14.00,2013-01-01 21:04:00,
2013-01-01 16:09:00,31.9,28.5,30.04,SSW,200,3.0,7.0,87,0.00,,---,0.01,VWS V14.00,2013-01-01 21:09:00,
2013-01-01 16:14:00,31.8,28.4,30.05,South,184,1.0,4.0,87,0.00,,---,0.01,VWS V14.00,2013-01-01 21:14:00,
2013-01-01 16:19:00,31.7,28.3,30.05,SW,218,1.0,1.0,87,0.00,,---,0.01,VWS V14.00,2013-01-01 21:19:00,
2013-01-01 16:24:00,31.6,28.2,30.04,SSW,207,0.0,5.0,87,0.00,,---,0.01,VWS V14.00,2013-01-01 21:24:00,
2013-01-01 16:29:00,31.5,27.8,30.05,SSW,209,1.0,3.0,86,0.00,,---,0.01,VWS V14.00,2013-01-01 21:29:00,
2013-01-01 16:34:00,31.5,27.8,30.04,SW,230,0.0,2.0,86,0.00,,---,0.01,VWS V14.00,2013-01-01 21:34:00,
2013-01-01 16:39:00,31.4,27.7,30.04,WNW,294,2.0,2.0,86,0.00,,---,0.01,VWS V14.00,2013-01-01 21:39:00,
2013-01-01 16:44:00,31.3,27.6,30.05,WNW,298,0.0,2.0,86,0.00,,---,0.01,VWS V14.00,2013-01-01 21:44:00,
2013-01-01 16:49:00,31.2,27.5,30.04,SW,230,0.0,2.0,86,0.00,,---,0.01,VWS V14.00,2013-01-01 21:49:00,
2013-01-01 16:54:00,31.2,27.5,30.04,WSW,244,0.0,2.0,86,0.00,,---,0.01,VWS V14.00,2013-01-01 21:54:00,
2013-01-01 16:59:00,31.1,27.4,30.06,WSW,244,0.0,1.0,86,0.00,,---,0.01,VWS V14.00,2013-01-01 21:59:00,
2013-01-01 17:04:00,31.1,27.4,30.06,WSW,251,3.0,5.0,86,0.00,,---,0.01,VWS V14.00,2013-01-01 22:04:00,
2013-01-01 17:09:00,31.0,27.3,30.06,NW,323,0.0,3.0,86,0.00,,---,0.01,VWS V14.00,2013-01-01 22:09:00,
2013-01-01 17:14:00,30.9,27.2,30.06,WNW,297,4.0,5.0,86,0.00,,---,0.01,VWS V14.00,2013-01-01 22:14:00,
2013-01-01 17:19:00,30.8,27.4,30.06,WNW,297,0.0,3.0,87,0.00,,---,0.01,VWS V14.00,2013-01-01 22:19:00,
2013-01-01 17:24:00,30.7,27.3,30.05,NW,311,0.0,5.0,87,0.00,,---,0.01,VWS V14.00,2013-01-01 22:24:00,
2013-01-01 17:29:00,30.5,27.1,30.06,NW,306,0.0,6.0,87,0.00,,---,0.01,VWS V14.00,2013-01-01 22:29:00,
2013-01-01 17:34:00,30.4,27.0,30.06,NW,306,0.0,2.0,87,0.00,,---,0.01,VWS V14.00,2013-01-01 22:34:00,
2013-01-01 17:38:00,30.3,26.9,30.06,NW,308,2.0,3.0,87,0.00,,---,0.01,VWS V14.00,2013-01-01 22:38:00,
2013-01-01 17:43:00,30.1,26.7,30.06,NW,308,0.0,1.0,87,0.00,,---,0.01,VWS V14.00,2013-01-01 22:43:00,
2013-01-01 17:49:00,30.0,26.6,30.06,WNW,286,1.0,6.0,87,0.00,,---,0.01,VWS V14.00,2013-01-01 22:49:00,
2013-01-01 17:53:00,29.8,26.4,30.05,WNW,287,0.0,3.0,87,0.00,,---,0.01,VWS V14.00,2013-01-01 22:53:00,
2013-01-01 17:58:00,29.7,26.3,30.05,WNW,294,3.0,3.0,87,0.00,,---,0.01,VWS V14.00,2013-01-01 22:58:00,
2013-01-01 18:04:00,29.6,26.2,30.06,WNW,294,3.0,3.0,87,0.00,,---,0.01,VWS V14.00,2013-01-01 23:04:00,
2013-01-01 18:09:00,29.5,26.1,30.05,WNW,290,1.0,4.0,87,0.00,,---,0.01,VWS V14.00,2013-01-01 23:09:00,
2013-01-01 18:14:00,29.4,26.0,30.05,NNW,342,0.0,3.0,87,0.00,,---,0.01,VWS V14.00,2013-01-01 23:14:00,
2013-01-01 18:19:00,29.3,26.2,30.06,WNW,295,1.0,5.0,88,0.00,,---,0.01,VWS V14.00,2013-01-01 23:19:00,
2013-01-01 18:24:00,29.1,25.7,30.06,NNW,348,0.0,3.0,87,0.00,,---,0.01,VWS V14.00,2013-01-01 23:24:00,
2013-01-01 18:28:00,29.0,25.6,30.05,NW,304,2.0,5.0,87,0.00,,---,0.01,VWS V14.00,2013-01-01 23:28:00,
2013-01-01 18:33:00,28.9,25.8,30.06,NW,304,0.0,0.0,88,0.00,,---,0.01,VWS V14.00,2013-01-01 23:33:00,
2013-01-01 18:39:00,28.8,25.7,30.06,NW,304,0.0,0.0,88,0.00,,---,0.01,VWS V14.00,2013-01-01 23:39:00,
2013-01-01 18:44:00,28.7,25.3,30.06,WNW,300,1.0,3.0,87,0.00,,---,0.01,VWS V14.00,2013-01-01 23:44:00,
2013-01-01 18:49:00,28.6,25.5,30.07,WNW,300,0.0,2.0,88,0.00,,---,0.01,VWS V14.00,2013-01-01 23:49:00,
2013-01-01 18:54:00,28.6,25.5,30.07,NW,306,1.0,3.0,88,0.00,,---,0.01,VWS V14.00,2013-01-01 23:54:00,
2013-01-01 18:59:00,28.5,25.4,30.07,NW,306,0.0,1.0,88,0.00,,---,0.01,VWS V14.00,2013-01-01 23:59:00,
2013-01-01 19:04:00,28.4,25.3,30.08,NW,306,1.0,2.0,88,0.00,,---,0.01,VWS V14.00,2013-01-02 00:04:00,
2013-01-01 19:09:00,28.3,25.2,30.08,NW,310,0.0,4.0,88,0.00,,---,0.01,VWS V14.00,2013-01-02 00:09:00,
2013-01-01 19:14:00,28.3,25.2,30.08,NW,310,0.0,1.0,88,0.00,,---,0.01,VWS V14.00,2013-01-02 00:14:00,
2013-01-01 19:19:00,28.1,25.0,30.07,NNW,327,0.0,2.0,88,0.00,,---,0.01,VWS V14.00,2013-01-02 00:19:00,
2013-01-01 19:24:00,28.1,25.0,30.08,NNW,327,0.0,0.0,88,0.00,,---,0.01,VWS V14.00,2013-01-02 00:24:00,
2013-01-01 19:29:00,28.1,25.0,30.08,West,280,0.0,3.0,88,0.00,,---,0.01,VWS V14.00,2013-01-02 00:29:00,
2013-01-01 19:34:00,28.0,24.9,30.08,West,280,0.0,3.0,88,0.00,,---,0.01,VWS V14.00,2013-01-02 00:34:00,
2013-01-01 19:39:00,27.9,24.8,30.08,West,280,0.0,2.0,88,0.00,,---,0.01,VWS V14.00,2013-01-02 00:39:00,
2013-01-01 19:44:00,27.9,24.8,30.08,West,280,0.0,2.0,88,0.00,,---,0.01,VWS V14.00,2013-01-02 00:44:00,
2013-01-01 19:49:00,27.8,24.7,30.07,West,280,0.0,0.0,88,0.00,,---,0.01,VWS V14.00,2013-01-02 00:49:00,
2013-01-01 19:54:00,27.8,24.7,30.08,West,280,0.0,0.0,88,0.00,,---,0.01,VWS V14.00,2013-01-02 00:54:00,
2013-01-01 19:59:00,27.8,24.7,30.08,West,280,0.0,0.0,88,0.00,,---,0.01,VWS V14.00,2013-01-02 00:59:00,
2013-01-01 20:04:00,27.8,24.7,30.07,West,280,0.0,1.0,88,0.00,,---,0.01,VWS V14.00,2013-01-02 01:04:00,
2013-01-01 20:09:00,27.7,24.6,30.08,West,280,0.0,2.0,88,0.00,,---,0.01,VWS V14.00,2013-01-02 01:09:00,
2013-01-01 20:14:00,27.6,24.5,30.08,West,280,0.0,0.0,88,0.00,,---,0.01,VWS V14.00,2013-01-02 01:14:00,
2013-01-01 20:18:00,27.6,24.5,30.07,West,280,0.0,0.0,88,0.00,,---,0.01,VWS V14.00,2013-01-02 01:18:00,
2013-01-01 20:23:00,27.6,24.5,30.07,West,280,0.0,0.0,88,0.00,,---,0.01,VWS V14.00,2013-01-02 01:23:00,
2013-01-01 20:28:00,27.5,24.4,30.07,West,280,0.0,1.0,88,0.00,,---,0.01,VWS V14.00,2013-01-02 01:28:00,
2013-01-01 20:33:00,27.5,24.4,30.07,West,280,0.0,0.0,88,0.00,,---,0.01,VWS V14.00,2013-01-02 01:33:00,
2013-01-01 20:38:00,27.4,24.3,30.08,West,280,1.0,1.0,88,0.00,,---,0.01,VWS V14.00,2013-01-02 01:38:00,
2013-01-01 20:43:00,27.3,24.2,30.07,West,280,0.0,2.0,88,0.00,,---,0.01,VWS V14.00,2013-01-02 01:43:00,
2013-01-01 20:48:00,27.2,24.1,30.07,WNW,295,0.0,5.0,88,0.00,,---,0.01,VWS V14.00,2013-01-02 01:48:00,
2013-01-01 20:53:00,27.1,24.0,30.08,NNW,337,0.0,3.0,88,0.00,,---,0.01,VWS V14.00,2013-01-02 01:53:00,
2013-01-01 20:58:00,27.0,23.9,30.08,NNW,348,1.0,9.0,88,0.00,,---,0.01,VWS V14.00,2013-01-02 01:58:00,
2013-01-01 21:03:00,26.9,23.8,30.08,WNW,296,4.0,6.0,88,0.00,,---,0.01,VWS V14.00,2013-01-02 02:03:00,
2013-01-01 21:08:00,26.7,23.6,30.08,West,271,1.0,3.0,88,0.00,,---,0.01,VWS V14.00,2013-01-02 02:08:00,
2013-01-01 21:13:00,26.6,23.3,30.08,NW,315,2.0,5.0,87,0.00,,---,0.01,VWS V14.00,2013-01-02 02:13:00,
2013-01-01 21:18:00,26.6,23.3,30.08,NNW,346,0.0,2.0,87,0.00,,---,0.01,VWS V14.00,2013-01-02 02:18:00,
2013-01-01 21:23:00,26.5,23.2,30.08,NW,313,0.0,3.0,87,0.00,,---,0.01,VWS V14.00,2013-01-02 02:23:00,
2013-01-01 21:28:00,26.4,23.1,30.08,NW,317,0.0,4.0,87,0.00,,---,0.01,VWS V14.00,2013-01-02 02:28:00,
2013-01-01 21:33:00,26.3,23.0,30.08,NW,306,0.0,2.0,87,0.00,,---,0.01,VWS V14.00,2013-01-02 02:33:00,
2013-01-01 21:38:00,26.2,22.9,30.08,WNW,287,0.0,4.0,87,0.00,,---,0.01,VWS V14.00,2013-01-02 02:38:00,
2013-01-01 21:43:00,26.1,22.8,30.08,WNW,287,0.0,2.0,87,0.00,,---,0.01,VWS V14.00,2013-01-02 02:43:00,
2013-01-01 21:48:00,26.0,22.7,30.09,WNW,292,0.0,3.0,87,0.00,,---,0.01,VWS V14.00,2013-01-02 02:48:00,
2013-01-01 21:53:00,26.0,22.7,30.08,NW,315,0.0,3.0,87,0.00,,---,0.01,VWS V14.00,2013-01-02 02:53:00,
2013-01-01 21:58:00,25.9,22.6,30.09,NW,315,0.0,0.0,87,0.00,,---,0.01,VWS V14.00,2013-01-02 02:58:00,
2013-01-01 22:03:00,25.8,22.5,30.09,West,274,0.0,2.0,87,0.00,,---,0.01,VWS V14.00,2013-01-02 03:03:00,
2013-01-01 22:09:00,25.8,22.5,30.10,West,274,0.0,1.0,87,0.00,,---,0.01,VWS V14.00,2013-01-02 03:09:00,
2013-01-01 22:14:00,25.7,22.4,30.10,West,274,0.0,0.0,87,0.00,,---,0.01,VWS V14.00,2013-01-02 03:14:00,
2013-01-01 22:19:00,25.6,22.3,30.10,West,274,1.0,1.0,87,0.00,,---,0.01,VWS V14.00,2013-01-02 03:19:00,
2013-01-01 22:24:00,25.6,22.3,30.09,WNW,296,0.0,3.0,87,0.00,,---,0.01,VWS V14.00,2013-01-02 03:24:00,
2013-01-01 22:29:00,25.5,22.2,30.09,WNW,290,2.0,6.0,87,0.00,,---,0.01,VWS V14.00,2013-01-02 03:29:00,
2013-01-01 22:34:00,25.4,21.8,30.09,WNW,296,4.0,5.0,86,0.00,,---,0.01,VWS V14.00,2013-01-02 03:34:00,
2013-01-01 22:39:00,25.3,21.7,30.09,West,281,0.0,3.0,86,0.00,,---,0.01,VWS V14.00,2013-01-02 03:39:00,
2013-01-01 22:44:00,25.2,21.6,30.09,West,281,0.0,1.0,86,0.00,,---,0.01,VWS V14.00,2013-01-02 03:44:00,
2013-01-01 22:49:00,25.2,21.6,30.09,West,281,0.0,2.0,86,0.00,,---,0.01,VWS V14.00,2013-01-02 03:49:00,
2013-01-01 22:54:00,25.2,21.6,30.09,West,281,0.0,2.0,86,0.00,,---,0.01,VWS V14.00,2013-01-02 03:54:00,
2013-01-01 22:59:00,25.1,21.5,30.10,West,281,1.0,3.0,86,0.00,,---,0.01,VWS V14.00,2013-01-02 03:59:00,
2013-01-01 23:04:00,25.0,21.4,30.10,NW,309,0.0,4.0,86,0.00,,---,0.01,VWS V14.00,2013-01-02 04:04:00,
2013-01-01 23:09:00,24.9,21.3,30.10,NW,309,0.0,0.0,86,0.00,,---,0.01,VWS V14.00,2013-01-02 04:09:00,
2013-01-01 23:14:00,24.9,21.3,30.10,NW,309,0.0,2.0,86,0.00,,---,0.01,VWS V14.00,2013-01-02 04:14:00,
2013-01-01 23:19:00,24.8,21.2,30.10,NW,309,1.0,2.0,86,0.00,,---,0.01,VWS V14.00,2013-01-02 04:19:00,
2013-01-01 23:24:00,24.8,21.2,30.10,NW,309,0.0,2.0,86,0.00,,---,0.01,VWS V14.00,2013-01-02 04:24:00,
2013-01-01 23:29:00,24.7,21.1,30.10,NW,309,0.0,0.0,86,0.00,,---,0.01,VWS V14.00,2013-01-02 04:29:00,
2013-01-01 23:34:00,24.6,21.0,30.10,WNW,284,0.0,3.0,86,0.00,,---,0.01,VWS V14.00,2013-01-02 04:34:00,
2013-01-01 23:39:00,24.5,20.9,30.10,WNW,284,0.0,0.0,86,0.00,,---,0.01,VWS V14.00,2013-01-02 04:39:00,
2013-01-01 23:44:00,24.4,20.8,30.10,WNW,296,0.0,3.0,86,0.00,,---,0.01,VWS V14.00,2013-01-02 04:44:00,
2013-01-01 23:49:00,24.3,20.7,30.10,West,280,0.0,3.0,86,0.00,,---,0.01,VWS V14.00,2013-01-02 04:49:00,
2013-01-01 23:54:00,24.2,20.6,30.10,West,280,0.0,2.0,86,0.00,,---,0.01,VWS V14.00,2013-01-02 04:54:00,
2013-01-01 23:59:00,24.1,20.5,30.10,NW,312,0.0,4.0,86,0.00,,---,0.01,VWS V14.00,2013-01-02 04:59:00,